Time,TemperatureF,DewpointF,PressureIn,WindDirection,WindDirectionDegrees,WindSpeedMPH,WindSpeedGustMPH,Humidity,HourlyPrecipIn,Conditions,Clouds,dailyrainin,SoftwareType,DateUTC
2013-07-05 00:01:00,74.4,71.3,30.24,SSE,162,0.0,0.0,90,0.00,RA,,0.00,WeatherDisplay:10.37,2013-07-05 04:01:00,
2013-07-05 00:06:00,74.4,71.3,30.25,SE,138,0.0,0.0,90,0.00,RA,,0.00,WeatherDisplay:10.37,2013-07-05 04:06:00,
2013-07-05 00:11:00,74.4,71.3,30.25,SE,139,0.0,0.0,90,0.00,CLR,,0.00,WeatherDisplay:10.37,2013-07-05 04:11:00,
2013-07-05 00:16:00,74.3,71.5,30.24,SE,138,0.0,0.0,91,0.00,CLR,,0.00,WeatherDisplay:10.37,2013-07-05 04:16:00,
2013-07-05 00:21:00,74.1,71.3,30.25,ESE,102,0.0,0.0,91,0.00,CLR,,0.00,WeatherDisplay:10.37,2013-07-05 04:21:00,
2013-07-05 00:26:00,74.1,71.3,30.24,East,101,0.0,0.0,91,0.00,CLR,,0.00,WeatherDisplay:10.37,2013-07-05 04:26:00,
2013-07-05 00:31:00,73.9,71.1,30.24,ESE,102,0.0,0.0,91,0.00,CLR,,0.00,WeatherDisplay:10.37,2013-07-05 04:31:00,
2013-07-05 00:36:00,73.8,71.3,30.24,East,101,1.1,0.0,92,0.00,CLR,,0.00,WeatherDisplay:10.37,2013-07-05 04:36:00,
2013-07-05 00:41:00,73.6,71.1,30.24,East,101,0.0,0.0,92,0.00,CLR,,0.00,WeatherDisplay:10.37,2013-07-05 04:41:00,
2013-07-05 00:46:00,73.5,71.0,30.25,ESE,102,0.0,0.0,92,0.00,CLR,,0.00,WeatherDisplay:10.37,2013-07-05 04:46:00,
2013-07-05 00:51:00,73.4,71.3,30.24,East,101,0.0,0.0,93,0.00,CLR,,0.00,WeatherDisplay:10.37,2013-07-05 04:51:00,
2013-07-05 00:56:00,73.3,71.2,30.24,ESE,112,0.0,0.0,93,0.00,CLR,,0.00,WeatherDisplay:10.37,2013-07-05 04:56:00,
2013-07-05 01:01:00,73.2,71.1,30.24,ESE,112,0.0,0.0,93,0.00,CLR,,0.00,WeatherDisplay:10.37,2013-07-05 05:01:00,
2013-07-05 01:06:00,73.0,70.9,30.24,ESE,111,0.0,0.0,93,0.00,CLR,,0.00,WeatherDisplay:10.37,2013-07-05 05:06:00,
2013-07-05 01:11:00,72.9,70.8,30.24,ESE,111,0.0,0.0,93,0.00,CLR,,0.00,WeatherDisplay:10.37,2013-07-05 05:11:00,
2013-07-05 01:16:00,72.7,70.9,30.24,ESE,112,0.0,0.0,94,0.00,CLR,,0.00,WeatherDisplay:10.37,2013-07-05 05:16:00,
2013-07-05 01:21:00,72.7,70.9,30.24,ESE,111,0.0,0.0,94,0.00,CLR,,0.00,WeatherDisplay:10.37,2013-07-05 05:21:00,
2013-07-05 01:26:00,72.6,70.8,30.24,ESE,111,0.0,0.0,94,0.00,CLR,,0.00,WeatherDisplay:10.37,2013-07-05 05:26:00,
2013-07-05 01:31:00,72.5,71.0,30.24,ESE,112,0.0,0.0,95,0.00,CLR,,0.00,WeatherDisplay:10.37,2013-07-05 05:31:00,
2013-07-05 01:36:00,72.4,70.9,30.24,ESE,111,0.0,0.0,95,0.00,CLR,,0.00,WeatherDisplay:10.37,2013-07-05 05:36:00,
2013-07-05 01:41:00,72.4,70.9,30.24,ESE,111,0.0,0.0,95,0.00,CLR,,0.00,WeatherDisplay:10.37,2013-07-05 05:41:00,
2013-07-05 01:46:00,72.3,70.8,30.24,ESE,111,0.0,0.0,95,0.00,CLR,,0.00,WeatherDisplay:10.37,2013-07-05 05:46:00,
2013-07-05 01:51:00,72.2,70.7,30.24,ESE,112,0.0,0.0,95,0.00,CLR,,0.00,WeatherDisplay:10.37,2013-07-05 05:51:00,
2013-07-05 01:56:00,72.0,70.5,30.24,ESE,111,0.0,0.0,95,0.00,CLR,,0.00,WeatherDisplay:10.37,2013-07-05 05:56:00,
2013-07-05 02:01:00,72.0,70.5,30.24,ESE,111,0.0,0.0,95,0.00,CLR,,0.00,WeatherDisplay:10.37,2013-07-05 06:01:00,
2013-07-05 02:06:00,72.0,70.8,30.24,ESE,111,0.0,0.0,96,0.00,CLR,,0.00,WeatherDisplay:10.37,2013-07-05 06:06:00,
2013-07-05 02:11:00,72.0,70.8,30.24,ESE,111,0.0,0.0,96,0.00,CLR,,0.00,WeatherDisplay:10.37,2013-07-05 06:11:00,
2013-07-05 02:16:00,71.9,70.7,30.24,ESE,111,0.0,0.0,96,0.00,CLR,,0.00,WeatherDisplay:10.37,2013-07-05 06:16:00,
2013-07-05 02:21:00,71.8,70.6,30.24,ESE,112,0.0,0.0,96,0.00,CLR,,0.00,WeatherDisplay:10.37,2013-07-05 06:21:00,
2013-07-05 02:26:00,71.8,70.6,30.24,ESE,111,0.0,0.0,96,0.00,CLR,,0.00,WeatherDisplay:10.37,2013-07-05 06:26:00,
2013-07-05 02:31:00,71.8,70.6,30.23,ESE,111,0.0,0.0,96,0.00,CLR,,0.00,WeatherDisplay:10.37,2013-07-05 06:31:00,
2013-07-05 02:36:00,71.7,70.5,30.23,ESE,111,0.0,0.0,96,0.00,CLR,,0.00,WeatherDisplay:10.37,2013-07-05 06:36:00,
2013-07-05 02:41:00,71.6,70.4,30.23,ESE,112,0.0,0.0,96,0.00,CLR,,0.00,WeatherDisplay:10.37,2013-07-05 06:41:00,
2013-07-05 02:46:00,71.5,70.3,30.23,ESE,111,0.0,0.0,96,0.00,CLR,,0.00,WeatherDisplay:10.37,2013-07-05 06:46:00,
2013-07-05 02:51:00,71.5,70.3,30.23,ESE,111,0.0,0.0,96,0.00,CLR,,0.00,WeatherDisplay:10.37,2013-07-05 06:51:00,
2013-07-05 02:56:00,71.5,70.3,30.23,ESE,111,0.0,0.0,96,0.00,CLR,,0.00,WeatherDisplay:10.37,2013-07-05 06:56:00,
2013-07-05 03:01:00,71.5,70.6,30.23,ESE,112,0.0,0.0,97,0.00,CLR,,0.00,WeatherDisplay:10.37,2013-07-05 07:01:00,
2013-07-05 03:06:00,71.5,70.6,30.22,ESE,111,0.0,0.0,97,0.00,CLR,,0.00,WeatherDisplay:10.37,2013-07-05 07:06:00,
2013-07-05 03:11:00,71.6,70.7,30.22,ESE,111,0.0,0.0,97,0.00,CLR,,0.00,WeatherDisplay:10.37,2013-07-05 07:11:00,
2013-07-05 03:16:00,71.6,70.7,30.22,ESE,111,0.0,0.0,97,0.00,CLR,,0.00,WeatherDisplay:10.37,2013-07-05 07:16:00,
2013-07-05 03:21:00,71.5,70.6,30.22,ESE,111,0.0,0.0,97,0.00,CLR,,0.00,WeatherDisplay:10.37,2013-07-05 07:21:00,
2013-07-05 03:26:00,71.5,70.6,30.22,ESE,112,0.0,0.0,97,0.00,CLR,,0.00,WeatherDisplay:10.37,2013-07-05 07:26:00,
2013-07-05 03:31:00,71.5,70.6,30.22,ESE,111,0.0,0.0,97,0.00,CLR,,0.00,WeatherDisplay:10.37,2013-07-05 07:31:00,
2013-07-05 03:36:00,71.4,70.5,30.22,ESE,111,0.0,0.0,97,0.00,CLR,,0.00,WeatherDisplay:10.37,2013-07-05 07:36:00,
2013-07-05 03:41:00,71.4,70.5,30.22,ESE,111,0.0,0.0,97,0.00,CLR,,0.00,WeatherDisplay:10.37,2013-07-05 07:41:00,
2013-07-05 03:46:00,71.2,70.3,30.21,ESE,112,0.0,0.0,97,0.00,CLR,,0.00,WeatherDisplay:10.37,2013-07-05 07:46:00,
2013-07-05 03:51:00,71.0,70.1,30.21,ESE,111,0.0,0.0,97,0.00,CLR,,0.00,WeatherDisplay:10.37,2013-07-05 07:51:00,
2013-07-05 03:56:00,70.9,70.0,30.22,ESE,111,0.0,0.0,97,0.00,CLR,,0.00,WeatherDisplay:10.37,2013-07-05 07:56:00,
2013-07-05 04:01:00,71.0,70.1,30.22,ESE,111,0.0,0.0,97,0.00,CLR,,0.00,WeatherDisplay:10.37,2013-07-05 08:01:00,
2013-07-05 04:06:00,71.1,70.2,30.22,ESE,112,0.0,0.0,97,0.00,CLR,,0.00,WeatherDisplay:10.37,2013-07-05 08:06:00,
2013-07-05 04:11:00,71.0,70.1,30.22,ESE,112,0.0,0.0,97,0.00,CLR,,0.00,WeatherDisplay:10.37,2013-07-05 08:11:00,
2013-07-05 04:16:00,71.0,70.1,30.22,ESE,111,0.0,0.0,97,0.00,CLR,,0.00,WeatherDisplay:10.37,2013-07-05 08:16:00,
2013-07-05 04:21:00,71.0,70.1,30.22,ESE,112,0.0,0.0,97,0.00,CLR,,0.00,WeatherDisplay:10.37,2013-07-05 08:21:00,
2013-07-05 04:27:00,71.1,70.5,30.23,ESE,112,0.0,0.0,98,0.00,CLR,,0.00,WeatherDisplay:10.37,2013-07-05 08:27:00,
2013-07-05 04:32:00,70.9,70.3,30.22,ESE,112,0.0,0.0,98,0.00,CLR,,0.00,WeatherDisplay:10.37,2013-07-05 08:32:00,
2013-07-05 04:37:00,70.9,70.3,30.22,ESE,111,0.0,0.0,98,0.00,CLR,,0.00,WeatherDisplay:10.37,2013-07-05 08:37:00,
2013-07-05 04:42:00,70.9,70.3,30.22,ESE,111,0.0,0.0,98,0.00,CLR,,0.00,WeatherDisplay:10.37,2013-07-05 08:42:00,
2013-07-05 04:47:00,70.9,70.3,30.22,ESE,111,0.0,0.0,98,0.00,CLR,,0.00,WeatherDisplay:10.37,2013-07-05 08:47:00,
2013-07-05 04:52:00,71.0,70.4,30.23,ESE,111,0.0,0.0,98,0.00,CLR,,0.00,WeatherDisplay:10.37,2013-07-05 08:52:00,
2013-07-05 04:57:00,71.2,70.6,30.22,ESE,111,0.0,0.0,98,0.00,CLR,,0.00,WeatherDisplay:10.37,2013-07-05 08:57:00,
2013-07-05 05:03:00,71.5,70.9,30.22,ESE,112,0.0,0.0,98,0.00,CLR,,0.00,WeatherDisplay:10.37,2013-07-05 09:03:00,
2013-07-05 05:08:00,71.6,71.0,30.22,ESE,111,0.0,0.0,98,0.00,CLR,,0.00,WeatherDisplay:10.37,2013-07-05 09:08:00,
2013-07-05 05:14:00,71.7,71.1,30.23,ESE,111,0.0,0.0,98,0.00,CLR,,0.00,WeatherDisplay:10.37,2013-07-05 09:14:00,
2013-07-05 05:19:00,71.8,71.2,30.23,South,177,0.0,0.0,98,0.00,CLR,,0.00,WeatherDisplay:10.37,2013-07-05 09:19:00,
2013-07-05 05:25:00,71.8,71.2,30.23,South,178,0.0,0.0,98,0.00,CLR,,0.00,WeatherDisplay:10.37,2013-07-05 09:25:00,
2013-07-05 05:30:00,71.8,71.2,30.23,South,177,0.0,0.0,98,0.00,CLR,,0.00,WeatherDisplay:10.37,2013-07-05 09:30:00,
2013-07-05 05:35:00,71.8,71.2,30.23,South,177,0.0,0.0,98,0.00,CLR,,0.00,WeatherDisplay:10.37,2013-07-05 09:35:00,
2013-07-05 05:41:00,71.9,71.3,30.23,South,177,0.0,0.0,98,0.00,CLR,,0.00,WeatherDisplay:10.37,2013-07-05 09:41:00,
2013-07-05 05:47:00,71.9,71.3,30.23,South,177,0.0,0.0,98,0.00,CLR,,0.00,WeatherDisplay:10.37,2013-07-05 09:47:00,
2013-07-05 05:52:00,72.0,71.4,30.23,South,177,0.0,0.0,98,0.00,CLR,,0.00,WeatherDisplay:10.37,2013-07-05 09:52:00,
2013-07-05 05:57:00,72.0,71.4,30.24,South,177,0.0,0.0,98,0.00,CLR,,0.00,WeatherDisplay:10.37,2013-07-05 09:57:00,
2013-07-05 06:02:00,72.1,71.5,30.24,South,177,0.0,0.0,98,0.00,CLR,,0.00,WeatherDisplay:10.37,2013-07-05 10:02:00,
2013-07-05 06:08:00,72.3,71.7,30.24,SE,138,0.0,0.0,98,0.00,CLR,,0.00,WeatherDisplay:10.37,2013-07-05 10:08:00,
2013-07-05 06:14:00,72.4,71.8,30.24,ESE,120,0.0,0.0,98,0.00,CLR,,0.00,WeatherDisplay:10.37,2013-07-05 10:14:00,
2013-07-05 06:20:00,72.4,71.8,30.24,ESE,120,0.0,0.0,98,0.00,CLR,,0.00,WeatherDisplay:10.37,2013-07-05 10:20:00,
2013-07-05 06:25:00,72.5,71.9,30.24,ESE,120,0.0,0.0,98,0.00,CLR,,0.00,WeatherDisplay:10.37,2013-07-05 10:25:00,
2013-07-05 06:30:00,72.6,72.0,30.24,ESE,120,0.0,0.0,98,0.00,CLR,,0.00,WeatherDisplay:10.37,2013-07-05 10:30:00,
2013-07-05 06:35:00,72.7,72.1,30.23,East,96,0.0,0.0,98,0.00,CLR,,0.00,WeatherDisplay:10.37,2013-07-05 10:35:00,
2013-07-05 06:40:00,72.8,72.2,30.23,SE,141,0.0,0.0,98,0.00,CLR,,0.00,WeatherDisplay:10.37,2013-07-05 10:40:00,
2013-07-05 06:45:00,72.9,72.3,30.24,SSW,207,0.0,0.0,98,0.00,CLR,,0.00,WeatherDisplay:10.37,2013-07-05 10:45:00,
2013-07-05 06:51:00,73.0,72.4,30.24,SSW,206,0.0,0.0,98,0.00,CLR,,0.00,WeatherDisplay:10.37,2013-07-05 10:51:00,
2013-07-05 06:56:00,73.0,72.4,30.24,SSW,204,0.0,0.0,98,0.00,CLR,,0.00,WeatherDisplay:10.37,2013-07-05 10:56:00,
2013-07-05 07:02:00,73.1,72.5,30.24,SW,227,0.0,0.0,98,0.00,CLR,,0.00,WeatherDisplay:10.37,2013-07-05 11:02:00,
2013-07-05 07:08:00,73.2,72.6,30.24,SW,226,0.0,0.0,98,0.00,CLR,,0.00,WeatherDisplay:10.37,2013-07-05 11:08:00,
2013-07-05 07:14:00,73.3,72.7,30.25,SW,231,0.0,0.0,98,0.00,CLR,,0.00,WeatherDisplay:10.37,2013-07-05 11:14:00,
2013-07-05 07:19:00,73.3,72.7,30.24,East,100,0.0,0.0,98,0.00,CLR,,0.00,WeatherDisplay:10.37,2013-07-05 11:19:00,
2013-07-05 07:24:00,73.5,72.9,30.25,SE,134,0.0,0.0,98,0.00,CLR,,0.00,WeatherDisplay:10.37,2013-07-05 11:24:00,
2013-07-05 07:29:00,73.6,73.0,30.25,SE,132,0.0,0.0,98,0.00,CLR,,0.00,WeatherDisplay:10.37,2013-07-05 11:29:00,
2013-07-05 07:35:00,73.8,73.2,30.25,SE,132,0.0,0.0,98,0.00,CLR,,0.00,WeatherDisplay:10.37,2013-07-05 11:35:00,
2013-07-05 07:40:00,73.9,73.3,30.25,ESE,111,0.0,0.0,98,0.00,CLR,,0.00,WeatherDisplay:10.37,2013-07-05 11:40:00,
2013-07-05 07:45:00,74.0,73.4,30.25,ESE,112,0.0,0.0,98,0.00,CLR,,0.00,WeatherDisplay:10.37,2013-07-05 11:45:00,
2013-07-05 07:50:00,74.2,73.6,30.25,ESE,112,0.0,0.0,98,0.00,CLR,,0.00,WeatherDisplay:10.37,2013-07-05 11:50:00,
2013-07-05 07:56:00,74.3,73.7,30.25,ESE,111,0.0,0.0,98,0.00,CLR,,0.00,WeatherDisplay:10.37,2013-07-05 11:56:00,
2013-07-05 08:01:00,74.4,73.8,30.25,ESE,111,0.0,0.0,98,0.00,CLR,,0.00,WeatherDisplay:10.37,2013-07-05 12:01:00,
2013-07-05 08:07:00,74.6,73.7,30.25,WSW,249,0.0,0.0,97,0.00,CLR,,0.00,WeatherDisplay:10.37,2013-07-05 12:07:00,
2013-07-05 08:12:00,74.8,73.9,30.25,WSW,249,0.0,0.0,97,0.00,CLR,,0.00,WeatherDisplay:10.37,2013-07-05 12:12:00,
2013-07-05 08:17:00,74.9,74.0,30.25,NW,311,5.0,5.0,97,0.00,CLR,,0.00,WeatherDisplay:10.37,2013-07-05 12:17:00,
2013-07-05 08:22:00,75.1,74.2,30.26,WSW,255,1.1,0.0,97,0.00,CLR,,0.00,WeatherDisplay:10.37,2013-07-05 12:22:00,
2013-07-05 08:28:00,75.4,74.2,30.26,SSW,203,0.0,0.0,96,0.00,CLR,,0.00,WeatherDisplay:10.37,2013-07-05 12:28:00,
2013-07-05 08:33:00,75.6,74.4,30.26,WSW,250,1.0,1.0,96,0.00,CLR,,0.00,WeatherDisplay:10.37,2013-07-05 12:33:00,
2013-07-05 08:38:00,75.8,74.3,30.26,SW,231,3.5,3.5,95,0.00,CLR,,0.00,WeatherDisplay:10.37,2013-07-05 12:38:00,
2013-07-05 08:45:00,76.2,74.3,30.26,NW,308,2.3,2.3,94,0.00,CLR,,0.00,WeatherDisplay:10.37,2013-07-05 12:45:00,
2013-07-05 08:50:00,76.6,74.4,30.26,SW,229,4.6,4.6,93,0.00,CLR,,0.00,WeatherDisplay:10.37,2013-07-05 12:50:00,
2013-07-05 08:55:00,76.9,74.7,30.26,West,264,0.0,0.0,93,0.00,CLR,,0.00,WeatherDisplay:10.37,2013-07-05 12:55:00,
2013-07-05 09:00:00,77.2,74.7,30.26,SW,231,2.0,2.0,92,0.00,CLR,,0.00,WeatherDisplay:10.37,2013-07-05 13:00:00,
2013-07-05 09:05:00,77.5,74.7,30.26,WSW,248,0.0,0.0,91,0.00,CLR,,0.00,WeatherDisplay:10.37,2013-07-05 13:05:00,
2013-07-05 09:10:00,77.9,74.7,30.26,SSE,158,1.1,1.1,90,0.00,CLR,,0.00,WeatherDisplay:10.37,2013-07-05 13:10:00,
2013-07-05 09:15:00,78.1,74.6,30.26,NNW,338,3.5,0.0,89,0.00,CLR,,0.00,WeatherDisplay:10.37,2013-07-05 13:15:00,
2013-07-05 09:21:00,78.2,74.7,30.26,West,260,0.0,0.0,89,0.00,CLR,,0.00,WeatherDisplay:10.37,2013-07-05 13:21:00,
2013-07-05 09:26:00,78.4,74.5,30.26,NNW,330,0.0,0.0,88,0.00,CLR,,0.00,WeatherDisplay:10.37,2013-07-05 13:26:00,
2013-07-05 09:32:00,78.9,75.0,30.26,SSW,198,2.3,2.3,88,0.00,CLR,,0.00,WeatherDisplay:10.37,2013-07-05 13:32:00,
2013-07-05 09:37:00,79.4,75.5,30.26,WNW,302,0.0,0.0,88,0.00,CLR,,0.00,WeatherDisplay:10.37,2013-07-05 13:37:00,
2013-07-05 09:43:00,79.9,75.0,30.26,WNW,291,1.1,1.1,85,0.00,CLR,,0.00,WeatherDisplay:10.37,2013-07-05 13:43:00,
2013-07-05 09:48:00,80.7,75.8,30.26,West,267,1.0,0.0,85,0.00,CLR,,0.00,WeatherDisplay:10.37,2013-07-05 13:48:00,
2013-07-05 09:54:00,81.5,75.8,30.26,WSW,249,3.5,3.5,83,0.00,CLR,,0.00,WeatherDisplay:10.37,2013-07-05 13:54:00,
2013-07-05 09:59:00,82.3,75.5,30.27,SW,224,1.1,1.1,80,0.00,CLR,,0.00,WeatherDisplay:10.37,2013-07-05 13:59:00,
2013-07-05 10:04:00,83.2,76.0,30.27,WSW,257,1.1,1.1,79,0.00,CLR,,0.00,WeatherDisplay:10.37,2013-07-05 14:04:00,
2013-07-05 10:10:00,83.9,75.5,30.27,SSW,210,4.6,4.6,76,0.00,CLR,,0.00,WeatherDisplay:10.37,2013-07-05 14:10:00,
2013-07-05 10:15:00,84.2,75.8,30.26,WSW,250,3.5,3.5,76,0.00,CLR,,0.00,WeatherDisplay:10.37,2013-07-05 14:15:00,
2013-07-05 10:20:00,84.2,75.8,30.26,WNW,294,3.0,3.0,76,0.00,CLR,,0.00,WeatherDisplay:10.37,2013-07-05 14:20:00,
2013-07-05 10:26:00,84.1,75.7,30.26,WSW,246,1.0,1.0,76,0.00,CLR,,0.00,WeatherDisplay:10.37,2013-07-05 14:26:00,
2013-07-05 10:32:00,84.5,76.5,30.27,North,4,0.0,0.0,77,0.00,CLR,,0.00,WeatherDisplay:10.37,2013-07-05 14:32:00,
2013-07-05 10:37:00,85.1,75.5,30.27,NNE,30,2.3,2.3,73,0.00,CLR,,0.00,WeatherDisplay:10.37,2013-07-05 14:37:00,
2013-07-05 10:42:00,85.9,75.8,30.27,SW,229,1.1,1.1,72,0.00,CLR,,0.00,WeatherDisplay:10.37,2013-07-05 14:42:00,
2013-07-05 10:47:00,86.5,77.2,30.26,WSW,239,1.1,1.1,74,0.00,CLR,,0.00,WeatherDisplay:10.37,2013-07-05 14:47:00,
2013-07-05 10:52:00,87.2,77.1,30.27,East,81,1.1,1.1,72,0.00,CLR,,0.00,WeatherDisplay:10.37,2013-07-05 14:52:00,
2013-07-05 10:58:00,86.9,76.4,30.27,East,90,0.0,0.0,71,0.00,CLR,,0.00,WeatherDisplay:10.37,2013-07-05 14:58:00,
2013-07-05 11:03:00,86.9,76.4,30.26,SSW,201,2.3,2.3,71,0.00,CLR,,0.00,WeatherDisplay:10.37,2013-07-05 15:03:00,
2013-07-05 11:08:00,86.8,75.8,30.26,WSW,245,1.1,1.1,70,0.00,CLR,,0.00,WeatherDisplay:10.37,2013-07-05 15:08:00,
2013-07-05 11:13:00,86.3,76.2,30.26,WSW,238,2.3,2.3,72,0.00,CLR,,0.00,WeatherDisplay:10.37,2013-07-05 15:13:00,
2013-07-05 11:18:00,85.6,75.9,30.26,West,264,1.1,1.1,73,0.00,CLR,,0.00,WeatherDisplay:10.37,2013-07-05 15:18:00,
2013-07-05 11:24:00,85.3,75.7,30.26,SW,231,3.5,3.5,73,0.00,CLR,,0.00,WeatherDisplay:10.37,2013-07-05 15:24:00,
2013-07-05 11:29:00,85.8,75.7,30.26,North,8,3.5,3.5,72,0.00,CLR,,0.00,WeatherDisplay:10.37,2013-07-05 15:29:00,
2013-07-05 11:34:00,86.1,76.0,30.26,ESE,110,3.5,3.5,72,0.00,CLR,,0.00,WeatherDisplay:10.37,2013-07-05 15:34:00,
2013-07-05 11:39:00,86.6,75.2,30.25,SW,233,2.3,2.3,69,0.00,CLR,,0.00,WeatherDisplay:10.37,2013-07-05 15:39:00,
2013-07-05 11:44:00,87.2,76.2,30.25,SE,132,1.1,1.1,70,0.00,CLR,,0.00,WeatherDisplay:10.37,2013-07-05 15:44:00,
2013-07-05 11:49:00,86.9,74.2,30.25,ESE,104,3.0,3.0,66,0.00,CLR,,0.00,WeatherDisplay:10.37,2013-07-05 15:49:00,
2013-07-05 11:50:00,86.9,74.2,30.25,South,184,3.5,3.5,66,0.00,CLR,,0.00,WeatherDisplay:10.37,2013-07-05 15:50:00,
2013-07-05 11:55:00,87.4,75.1,30.25,NW,322,3.5,3.5,67,0.00,CLR,,0.00,WeatherDisplay:10.37,2013-07-05 15:55:00,
2013-07-05 12:00:00,87.5,75.2,30.25,SW,225,2.3,2.3,67,0.00,CLR,,0.00,WeatherDisplay:10.37,2013-07-05 16:00:00,
2013-07-05 12:05:00,87.9,75.1,30.25,WNW,293,6.9,6.9,66,0.00,CLR,,0.00,WeatherDisplay:10.37,2013-07-05 16:05:00,
2013-07-05 12:10:00,86.8,75.0,30.25,SE,131,3.5,3.5,68,0.00,CLR,,0.00,WeatherDisplay:10.37,2013-07-05 16:10:00,
2013-07-05 12:15:00,86.5,76.0,30.25,East,79,2.3,2.3,71,0.00,CLR,,0.00,WeatherDisplay:10.37,2013-07-05 16:15:00,
2013-07-05 12:20:00,87.0,75.6,30.25,SW,229,3.5,3.5,69,0.00,CLR,,0.00,WeatherDisplay:10.37,2013-07-05 16:20:00,
2013-07-05 12:25:00,87.6,77.0,30.25,WSW,257,1.0,1.0,71,0.00,CLR,,0.00,WeatherDisplay:10.37,2013-07-05 16:25:00,
2013-07-05 12:30:00,88.4,76.0,30.25,SW,235,3.5,3.5,67,0.00,CLR,,0.00,WeatherDisplay:10.37,2013-07-05 16:30:00,
2013-07-05 12:35:00,89.0,76.6,30.25,SSE,156,3.5,3.5,67,0.00,CLR,,0.00,WeatherDisplay:10.37,2013-07-05 16:35:00,
2013-07-05 12:40:00,89.3,76.4,30.25,WSW,253,1.1,1.1,66,0.00,CLR,,0.00,WeatherDisplay:10.37,2013-07-05 16:40:00,
2013-07-05 12:45:00,89.5,73.8,30.25,WNW,289,3.5,3.5,60,0.00,CLR,,0.00,WeatherDisplay:10.37,2013-07-05 16:45:00,
2013-07-05 12:50:00,89.9,76.1,30.25,NE,51,2.3,2.3,64,0.00,CLR,,0.00,WeatherDisplay:10.37,2013-07-05 16:50:00,
2013-07-05 12:55:00,90.3,76.5,30.25,West,276,3.5,3.5,64,0.00,CLR,,0.00,WeatherDisplay:10.37,2013-07-05 16:55:00,
2013-07-05 13:00:00,90.2,75.4,30.24,WSW,245,3.5,3.5,62,0.00,CLR,,0.00,WeatherDisplay:10.37,2013-07-05 17:00:00,
2013-07-05 13:05:00,89.9,75.1,30.24,ESE,114,3.5,3.5,62,0.00,CLR,,0.00,WeatherDisplay:10.37,2013-07-05 17:05:00,
2013-07-05 13:10:00,90.1,74.8,30.24,SE,145,3.5,3.5,61,0.00,CLR,,0.00,WeatherDisplay:10.37,2013-07-05 17:10:00,
2013-07-05 13:15:00,90.5,75.2,30.24,SSE,148,3.5,3.5,61,0.00,CLR,,0.00,WeatherDisplay:10.37,2013-07-05 17:15:00,
2013-07-05 13:20:00,91.0,75.2,30.24,SW,226,2.3,2.3,60,0.00,CLR,,0.00,WeatherDisplay:10.37,2013-07-05 17:20:00,
2013-07-05 13:25:00,91.6,74.7,30.24,NNW,329,1.1,1.1,58,0.00,CLR,,0.00,WeatherDisplay:10.37,2013-07-05 17:25:00,
2013-07-05 13:30:00,91.7,74.3,30.23,ESE,107,6.0,6.0,57,0.00,CLR,,0.00,WeatherDisplay:10.37,2013-07-05 17:30:00,
2013-07-05 13:35:00,91.6,73.7,30.23,SE,138,3.5,3.5,56,0.00,CLR,,0.00,WeatherDisplay:10.37,2013-07-05 17:35:00,
2013-07-05 13:40:00,91.9,74.5,30.23,ENE,68,3.5,3.5,57,0.00,CLR,,0.00,WeatherDisplay:10.37,2013-07-05 17:40:00,
2013-07-05 13:45:00,91.5,74.6,30.23,ESE,112,5.0,5.0,58,0.00,CLR,,0.00,WeatherDisplay:10.37,2013-07-05 17:45:00,
2013-07-05 13:50:00,91.3,74.4,30.23,South,184,3.5,3.5,58,0.00,CLR,,0.00,WeatherDisplay:10.37,2013-07-05 17:50:00,
2013-07-05 13:55:00,91.2,73.8,30.22,South,172,4.6,4.6,57,0.00,CLR,,0.00,WeatherDisplay:10.37,2013-07-05 17:55:00,
2013-07-05 14:00:00,90.6,73.8,30.22,SSW,203,2.3,2.3,58,0.00,CLR,,0.00,WeatherDisplay:10.37,2013-07-05 18:00:00,
2013-07-05 14:05:00,90.9,74.6,30.22,SW,224,3.5,3.5,59,0.00,CLR,,0.00,WeatherDisplay:10.37,2013-07-05 18:05:00,
2013-07-05 14:10:00,91.0,74.7,30.22,ESE,122,2.3,2.3,59,0.00,CLR,,0.00,WeatherDisplay:10.37,2013-07-05 18:10:00,
2013-07-05 14:15:00,91.7,75.8,30.21,WSW,255,2.3,2.3,60,0.00,CLR,,0.00,WeatherDisplay:10.37,2013-07-05 18:15:00,
2013-07-05 14:20:00,91.8,74.4,30.21,ESE,119,2.3,2.3,57,0.00,CLR,,0.00,WeatherDisplay:10.37,2013-07-05 18:20:00,
2013-07-05 14:25:00,92.5,75.0,30.21,SW,226,3.0,3.0,57,0.00,CLR,,0.00,WeatherDisplay:10.37,2013-07-05 18:25:00,
2013-07-05 14:30:00,93.1,75.6,30.21,East,87,6.0,6.0,57,0.00,CLR,,0.00,WeatherDisplay:10.37,2013-07-05 18:30:00,
2013-07-05 14:35:00,92.2,73.7,30.21,SE,129,2.3,2.3,55,0.00,CLR,,0.00,WeatherDisplay:10.37,2013-07-05 18:35:00,
2013-07-05 14:40:00,92.2,75.3,30.21,SE,125,2.0,2.0,58,0.00,CLR,,0.00,WeatherDisplay:10.37,2013-07-05 18:40:00,
2013-07-05 14:45:00,92.7,75.8,30.21,East,85,3.5,3.5,58,0.00,CLR,,0.00,WeatherDisplay:10.37,2013-07-05 18:45:00,
2013-07-05 14:50:00,92.7,74.7,30.20,SE,129,3.5,3.5,56,0.00,CLR,,0.00,WeatherDisplay:10.37,2013-07-05 18:50:00,
2013-07-05 14:55:00,92.4,74.4,30.20,NNW,342,3.5,3.5,56,0.00,CLR,,0.00,WeatherDisplay:10.37,2013-07-05 18:55:00,
2013-07-05 15:00:00,92.6,74.6,30.20,SW,224,4.6,4.6,56,0.00,CLR,,0.00,WeatherDisplay:10.37,2013-07-05 19:00:00,
2013-07-05 15:05:00,92.8,75.3,30.20,ESE,102,3.5,3.5,57,0.00,CLR,,0.00,WeatherDisplay:10.37,2013-07-05 19:05:00,
2013-07-05 15:10:00,92.9,74.4,30.20,South,191,5.8,5.8,55,0.00,CLR,,0.00,WeatherDisplay:10.37,2013-07-05 19:10:00,
2013-07-05 15:15:00,93.1,75.1,30.20,SW,235,4.0,4.0,56,0.00,CLR,,0.00,WeatherDisplay:10.37,2013-07-05 19:15:00,
2013-07-05 15:20:00,92.4,73.9,30.20,ENE,71,3.5,3.5,55,0.00,CLR,,0.00,WeatherDisplay:10.37,2013-07-05 19:20:00,
2013-07-05 15:25:00,92.6,74.6,30.19,SE,132,5.8,5.8,56,0.00,CLR,,0.00,WeatherDisplay:10.37,2013-07-05 19:25:00,
2013-07-05 15:30:00,92.7,73.6,30.19,South,175,5.8,5.8,54,0.00,CLR,,0.00,WeatherDisplay:10.37,2013-07-05 19:30:00,
2013-07-05 15:35:00,92.6,75.1,30.19,SSE,158,3.5,3.5,57,0.00,CLR,,0.00,WeatherDisplay:10.37,2013-07-05 19:35:00,
2013-07-05 15:40:00,92.7,74.7,30.19,East,86,2.3,2.3,56,0.00,CLR,,0.00,WeatherDisplay:10.37,2013-07-05 19:40:00,
2013-07-05 15:45:00,92.6,74.6,30.18,SW,217,3.5,3.5,56,0.00,CLR,,0.00,WeatherDisplay:10.37,2013-07-05 19:45:00,
2013-07-05 15:50:00,91.9,74.0,30.18,SE,138,2.3,2.3,56,0.00,CLR,,0.00,WeatherDisplay:10.37,2013-07-05 19:50:00,
2013-07-05 15:55:00,91.2,74.4,30.18,WSW,237,1.1,1.1,58,0.00,CLR,,0.00,WeatherDisplay:10.37,2013-07-05 19:55:00,
2013-07-05 16:00:00,90.6,74.3,30.18,WNW,299,1.1,1.1,59,0.00,CLR,,0.00,WeatherDisplay:10.37,2013-07-05 20:00:00,
2013-07-05 16:05:00,90.1,74.3,30.18,SSE,160,1.1,1.1,60,0.00,CLR,,0.00,WeatherDisplay:10.37,2013-07-05 20:05:00,
2013-07-05 16:10:00,90.2,75.4,30.18,South,171,0.0,0.1,62,0.00,CLR,,0.00,WeatherDisplay:10.37,2013-07-05 20:10:00,
2013-07-05 16:15:00,90.5,75.7,30.17,East,89,2.3,2.3,62,0.00,CLR,,0.00,WeatherDisplay:10.37,2013-07-05 20:15:00,
2013-07-05 16:20:00,91.0,76.2,30.17,NE,36,1.0,1.0,62,0.00,CLR,,0.00,WeatherDisplay:10.37,2013-07-05 20:20:00,
2013-07-05 16:25:00,91.4,75.6,30.17,ESE,114,3.5,3.5,60,0.00,CLR,,0.00,WeatherDisplay:10.37,2013-07-05 20:25:00,
2013-07-05 16:30:00,92.2,75.3,30.17,ESE,118,2.0,2.0,58,0.00,CLR,,0.00,WeatherDisplay:10.37,2013-07-05 20:30:00,
2013-07-05 16:35:00,92.6,75.1,30.17,ESE,105,2.3,2.3,57,0.00,CLR,,0.00,WeatherDisplay:10.37,2013-07-05 20:35:00,
2013-07-05 16:40:00,92.9,75.4,30.17,WSW,245,2.3,2.3,57,0.00,CLR,,0.00,WeatherDisplay:10.37,2013-07-05 20:40:00,
2013-07-05 16:41:00,92.9,75.4,30.17,WSW,245,1.1,1.1,57,0.00,CLR,,0.00,WeatherDisplay:10.37,2013-07-05 20:41:00,
2013-07-05 16:46:00,93.2,75.7,30.17,NW,326,2.3,2.3,57,0.00,CLR,,0.00,WeatherDisplay:10.37,2013-07-05 20:46:00,
2013-07-05 16:51:00,93.2,74.6,30.17,ENE,71,2.3,2.3,55,0.00,CLR,,0.00,WeatherDisplay:10.37,2013-07-05 20:51:00,
2013-07-05 16:56:00,92.2,74.8,30.17,NW,324,2.3,2.3,57,0.00,CLR,,0.00,WeatherDisplay:10.37,2013-07-05 20:56:00,
2013-07-05 17:01:00,91.5,74.6,30.16,SSW,211,2.3,2.3,58,0.00,CLR,,0.00,WeatherDisplay:10.37,2013-07-05 21:01:00,
2013-07-05 17:06:00,91.1,74.8,30.16,SSE,166,3.5,3.5,59,0.00,CLR,,0.00,WeatherDisplay:10.37,2013-07-05 21:06:00,
2013-07-05 17:11:00,91.0,76.2,30.16,SSW,201,3.5,3.5,62,0.00,CLR,,0.00,WeatherDisplay:10.37,2013-07-05 21:11:00,
2013-07-05 17:16:00,91.1,75.8,30.16,SW,215,3.5,3.5,61,0.00,CLR,,0.00,WeatherDisplay:10.37,2013-07-05 21:16:00,
2013-07-05 17:21:00,91.2,76.4,30.16,ESE,102,2.3,2.3,62,0.00,CLR,,0.00,WeatherDisplay:10.37,2013-07-05 21:21:00,
2013-07-05 17:26:00,91.4,76.5,30.16,WSW,243,1.1,1.1,62,0.00,CLR,,0.00,WeatherDisplay:10.37,2013-07-05 21:26:00,
2013-07-05 17:31:00,91.6,76.2,30.16,East,98,2.3,2.3,61,0.00,CLR,,0.00,WeatherDisplay:10.37,2013-07-05 21:31:00,
2013-07-05 17:36:00,91.5,76.1,30.15,SE,145,2.3,2.3,61,0.00,CLR,,0.00,WeatherDisplay:10.37,2013-07-05 21:36:00,
2013-07-05 17:41:00,91.1,75.8,30.15,West,270,3.5,3.5,61,0.00,CLR,,0.00,WeatherDisplay:10.37,2013-07-05 21:41:00,
2013-07-05 17:46:00,91.0,76.2,30.15,ESE,121,2.3,2.3,62,0.00,CLR,,0.00,WeatherDisplay:10.37,2013-07-05 21:46:00,
2013-07-05 17:51:00,91.3,76.5,30.15,SE,141,2.3,2.3,62,0.00,CLR,,0.00,WeatherDisplay:10.37,2013-07-05 21:51:00,
2013-07-05 17:56:00,91.5,76.6,30.15,South,187,1.1,0.0,62,0.00,CLR,,0.00,WeatherDisplay:10.37,2013-07-05 21:56:00,
2013-07-05 18:01:00,91.5,76.1,30.15,West,259,0.0,0.0,61,0.00,CLR,,0.00,WeatherDisplay:10.37,2013-07-05 22:01:00,
2013-07-05 18:06:00,91.7,76.3,30.15,ENE,58,2.3,2.3,61,0.00,CLR,,0.00,WeatherDisplay:10.37,2013-07-05 22:06:00,
2013-07-05 18:11:00,91.5,76.1,30.15,West,269,2.0,2.0,61,0.00,CLR,,0.00,WeatherDisplay:10.37,2013-07-05 22:11:00,
2013-07-05 18:16:00,90.5,75.7,30.15,SE,137,1.1,0.0,62,0.00,CLR,,0.00,WeatherDisplay:10.37,2013-07-05 22:16:00,
2013-07-05 18:21:00,89.6,76.3,30.15,West,278,1.1,1.1,65,0.00,CLR,,0.00,WeatherDisplay:10.37,2013-07-05 22:21:00,
2013-07-05 18:26:00,89.0,75.7,30.15,NE,41,3.5,3.5,65,0.00,CLR,,0.00,WeatherDisplay:10.37,2013-07-05 22:26:00,
2013-07-05 18:31:00,88.3,75.5,30.15,South,173,2.0,2.0,66,0.00,CLR,,0.00,WeatherDisplay:10.37,2013-07-05 22:31:00,
2013-07-05 18:36:00,87.5,75.2,30.15,SE,143,3.5,3.5,67,0.00,CLR,,0.00,WeatherDisplay:10.37,2013-07-05 22:36:00,
2013-07-05 18:41:00,87.0,75.2,30.16,WNW,284,0.0,0.0,68,0.00,CLR,,0.00,WeatherDisplay:10.37,2013-07-05 22:41:00,
2013-07-05 18:46:00,86.8,75.0,30.16,West,273,0.0,0.0,68,0.00,CLR,,0.00,WeatherDisplay:10.37,2013-07-05 22:46:00,
2013-07-05 18:51:00,86.5,74.7,30.16,West,263,1.1,1.1,68,0.00,CLR,,0.00,WeatherDisplay:10.37,2013-07-05 22:51:00,
2013-07-05 18:56:00,86.3,75.4,30.16,WSW,256,0.0,0.4,70,0.00,CLR,,0.00,WeatherDisplay:10.37,2013-07-05 22:56:00,
2013-07-05 19:01:00,85.9,75.0,30.16,WSW,239,2.3,2.3,70,0.00,CLR,,0.00,WeatherDisplay:10.37,2013-07-05 23:01:00,
2013-07-05 19:06:00,85.6,75.5,30.16,West,264,1.1,0.0,72,0.00,CLR,,0.00,WeatherDisplay:10.37,2013-07-05 23:06:00,
2013-07-05 19:11:00,85.4,75.3,30.16,ENE,70,0.0,0.0,72,0.00,CLR,,0.00,WeatherDisplay:10.37,2013-07-05 23:11:00,
2013-07-05 19:16:00,85.4,75.8,30.16,ENE,68,0.0,0.0,73,0.00,CLR,,0.00,WeatherDisplay:10.37,2013-07-05 23:16:00,
2013-07-05 19:21:00,85.4,75.8,30.17,SW,235,1.1,1.1,73,0.00,CLR,,0.00,WeatherDisplay:10.37,2013-07-05 23:21:00,
2013-07-05 19:26:00,85.2,76.0,30.17,SW,229,2.3,0.0,74,0.00,CLR,,0.00,WeatherDisplay:10.37,2013-07-05 23:26:00,
2013-07-05 19:32:00,85.0,75.8,30.16,SW,228,0.0,0.0,74,0.00,CLR,,0.00,WeatherDisplay:10.37,2013-07-05 23:32:00,
2013-07-05 19:37:00,84.9,75.7,30.17,SW,225,0.0,0.0,74,0.00,CLR,,0.00,WeatherDisplay:10.37,2013-07-05 23:37:00,
2013-07-05 19:42:00,84.7,75.9,30.17,SSW,201,0.0,0.0,75,0.00,CLR,,0.00,WeatherDisplay:10.37,2013-07-05 23:42:00,
2013-07-05 19:47:00,84.4,75.2,30.17,WSW,238,5.8,5.8,74,0.00,CLR,,0.00,WeatherDisplay:10.37,2013-07-05 23:47:00,
2013-07-05 19:52:00,84.0,74.8,30.17,ESE,118,0.0,0.0,74,0.00,CLR,,0.00,WeatherDisplay:10.37,2013-07-05 23:52:00,
2013-07-05 19:57:00,83.7,73.7,30.17,WSW,239,3.5,3.5,72,0.00,CLR,,0.00,WeatherDisplay:10.37,2013-07-05 23:57:00,
2013-07-05 20:02:00,83.5,73.5,30.18,SW,224,0.0,0.0,72,0.00,CLR,,0.00,WeatherDisplay:10.37,2013-07-06 00:02:00,
2013-07-05 20:07:00,83.2,73.6,30.18,SSW,203,1.1,0.0,73,0.00,CLR,,0.00,WeatherDisplay:10.37,2013-07-06 00:07:00,
2013-07-05 20:12:00,83.0,73.9,30.18,SE,146,0.0,0.0,74,0.00,CLR,,0.00,WeatherDisplay:10.37,2013-07-06 00:12:00,
2013-07-05 20:17:00,82.8,73.7,30.18,WSW,242,1.1,0.0,74,0.00,CLR,,0.00,WeatherDisplay:10.37,2013-07-06 00:17:00,
2013-07-05 20:22:00,82.5,73.8,30.18,WSW,239,1.1,0.0,75,0.00,CLR,,0.00,WeatherDisplay:10.37,2013-07-06 00:22:00,
2013-07-05 20:27:00,82.3,73.6,30.18,South,176,0.0,0.0,75,0.00,CLR,,0.00,WeatherDisplay:10.37,2013-07-06 00:27:00,
2013-07-05 20:32:00,82.0,73.7,30.18,South,176,0.0,0.0,76,0.00,CLR,,0.00,WeatherDisplay:10.37,2013-07-06 00:32:00,
2013-07-05 20:37:00,81.7,73.8,30.18,SSW,209,0.0,0.0,77,0.00,CLR,,0.00,WeatherDisplay:10.37,2013-07-06 00:37:00,
2013-07-05 20:42:00,81.5,73.6,30.18,SSW,211,0.0,0.0,77,0.00,CLR,,0.00,WeatherDisplay:10.37,2013-07-06 00:42:00,
2013-07-05 20:47:00,81.2,73.7,30.18,SSW,211,0.0,0.0,78,0.00,CLR,,0.00,WeatherDisplay:10.37,2013-07-06 00:47:00,
2013-07-05 20:52:00,80.9,73.8,30.18,SSW,204,0.0,0.0,79,0.00,CLR,,0.00,WeatherDisplay:10.37,2013-07-06 00:52:00,
2013-07-05 20:57:00,80.7,73.6,30.18,SSW,204,0.0,0.0,79,0.00,CLR,,0.00,WeatherDisplay:10.37,2013-07-06 00:57:00,
2013-07-05 21:02:00,80.5,74.1,30.18,West,278,0.0,0.0,81,0.00,CLR,,0.00,WeatherDisplay:10.37,2013-07-06 01:02:00,
2013-07-05 21:07:00,80.2,73.8,30.19,West,278,0.0,0.0,81,0.00,CLR,,0.00,WeatherDisplay:10.37,2013-07-06 01:07:00,
2013-07-05 21:08:00,80.2,73.8,30.19,West,278,0.0,0.0,81,0.00,CLR,,0.00,WeatherDisplay:10.37,2013-07-06 01:08:00,
2013-07-05 21:13:00,80.0,74.0,30.19,West,278,0.0,0.1,82,0.00,CLR,,0.00,WeatherDisplay:10.37,2013-07-06 01:13:00,
2013-07-05 21:18:00,79.8,74.2,30.19,West,276,0.0,0.0,83,0.00,CLR,,0.00,WeatherDisplay:10.37,2013-07-06 01:18:00,
2013-07-05 21:23:00,79.6,74.0,30.19,West,277,0.0,0.0,83,0.00,CLR,,0.00,WeatherDisplay:10.37,2013-07-06 01:23:00,
2013-07-05 21:28:00,79.4,73.8,30.19,West,276,0.0,0.0,83,0.00,CLR,,0.00,WeatherDisplay:10.37,2013-07-06 01:28:00,
2013-07-05 21:33:00,79.2,73.9,30.19,West,277,0.0,0.0,84,0.00,CLR,,0.00,WeatherDisplay:10.37,2013-07-06 01:33:00,
2013-07-05 21:38:00,79.0,74.1,30.20,West,276,1.1,0.0,85,0.00,CLR,,0.00,WeatherDisplay:10.37,2013-07-06 01:38:00,
2013-07-05 21:43:00,78.9,74.0,30.20,West,280,0.0,0.0,85,0.00,CLR,,0.00,WeatherDisplay:10.37,2013-07-06 01:43:00,
2013-07-05 21:48:00,78.8,73.9,30.21,West,276,0.0,0.0,85,0.00,CLR,,0.00,WeatherDisplay:10.37,2013-07-06 01:48:00,
2013-07-05 21:53:00,78.7,73.8,30.21,West,276,0.0,0.0,85,0.00,CLR,,0.00,WeatherDisplay:10.37,2013-07-06 01:53:00,
2013-07-05 21:58:00,78.6,73.7,30.21,SW,220,0.0,0.0,85,0.00,CLR,,0.00,WeatherDisplay:10.37,2013-07-06 01:58:00,
2013-07-05 22:03:00,78.5,74.0,30.21,WSW,249,2.3,2.3,86,0.00,CLR,,0.00,WeatherDisplay:10.37,2013-07-06 02:03:00,
2013-07-05 22:08:00,78.5,74.0,30.22,WSW,248,0.0,0.0,86,0.00,CLR,,0.00,WeatherDisplay:10.37,2013-07-06 02:08:00,
2013-07-05 22:13:00,78.4,73.9,30.22,WSW,245,0.0,0.0,86,0.00,CLR,,0.00,WeatherDisplay:10.37,2013-07-06 02:13:00,
2013-07-05 22:18:00,78.4,73.9,30.22,SE,125,1.0,1.0,86,0.00,CLR,,0.00,WeatherDisplay:10.37,2013-07-06 02:18:00,
2013-07-05 22:23:00,78.4,73.9,30.22,SE,142,0.0,0.0,86,0.00,CLR,,0.00,WeatherDisplay:10.37,2013-07-06 02:23:00,
2013-07-05 22:28:00,78.3,73.8,30.22,NNW,330,0.0,0.0,86,0.00,CLR,,0.00,WeatherDisplay:10.37,2013-07-06 02:28:00,
2013-07-05 22:33:00,78.2,73.7,30.22,NE,45,0.0,0.0,86,0.00,CLR,,0.00,WeatherDisplay:10.37,2013-07-06 02:33:00,
2013-07-05 22:38:00,78.1,73.6,30.22,NE,51,0.0,0.0,86,0.00,CLR,,0.00,WeatherDisplay:10.37,2013-07-06 02:38:00,
2013-07-05 22:43:00,78.1,73.9,30.22,SSE,152,0.0,0.0,87,0.00,CLR,,0.00,WeatherDisplay:10.37,2013-07-06 02:43:00,
2013-07-05 22:48:00,78.0,73.8,30.22,SSW,206,0.0,0.0,87,0.00,CLR,,0.00,WeatherDisplay:10.37,2013-07-06 02:48:00,
2013-07-05 22:53:00,78.0,73.8,30.22,SW,224,2.3,2.3,87,0.00,CLR,,0.00,WeatherDisplay:10.37,2013-07-06 02:53:00,
2013-07-05 22:58:00,78.0,73.8,30.22,WSW,251,0.0,0.0,87,0.00,CLR,,0.00,WeatherDisplay:10.37,2013-07-06 02:58:00,
2013-07-05 23:03:00,77.9,73.7,30.22,West,260,0.0,0.0,87,0.00,CLR,,0.00,WeatherDisplay:10.37,2013-07-06 03:03:00,
2013-07-05 23:08:00,77.8,73.6,30.23,SSE,156,1.1,1.1,87,0.00,CLR,,0.00,WeatherDisplay:10.37,2013-07-06 03:08:00,
2013-07-05 23:13:00,77.7,73.5,30.23,ESE,107,2.3,0.0,87,0.00,CLR,,0.00,WeatherDisplay:10.37,2013-07-06 03:13:00,
2013-07-05 23:18:00,77.5,73.3,30.23,SSW,195,0.0,0.0,87,0.00,CLR,,0.00,WeatherDisplay:10.37,2013-07-06 03:18:00,
2013-07-05 23:23:00,77.4,73.6,30.23,SW,231,3.5,3.5,88,0.00,CLR,,0.00,WeatherDisplay:10.37,2013-07-06 03:23:00,
2013-07-05 23:28:00,77.4,73.6,30.23,SSW,200,3.5,3.5,88,0.00,CLR,,0.00,WeatherDisplay:10.37,2013-07-06 03:28:00,
2013-07-05 23:33:00,77.2,73.4,30.23,WSW,242,0.0,0.0,88,0.00,CLR,,0.00,WeatherDisplay:10.37,2013-07-06 03:33:00,
2013-07-05 23:38:00,77.1,73.3,30.23,SW,221,0.0,0.0,88,0.00,CLR,,0.00,WeatherDisplay:10.37,2013-07-06 03:38:00,
2013-07-05 23:43:00,77.0,73.2,30.23,SSE,160,0.0,0.0,88,0.00,CLR,,0.00,WeatherDisplay:10.37,2013-07-06 03:43:00,
2013-07-05 23:48:00,76.9,73.1,30.23,SSE,166,0.0,0.0,88,0.00,CLR,,0.00,WeatherDisplay:10.37,2013-07-06 03:48:00,
2013-07-05 23:54:00,76.7,73.2,30.23,NW,308,1.1,0.0,89,0.00,CLR,,0.00,WeatherDisplay:10.37,2013-07-06 03:54:00,
2013-07-05 23:59:00,76.7,73.2,30.23,SE,139,3.5,3.5,89,0.00,CLR,,0.00,WeatherDisplay:10.37,2013-07-06 03:59:00,